Theta_e
330 329 328 328 328 329 329 329 329 329 329 330 330 330 330 329 329 329 329 328 328 327 327 327 327 326 326 326 326 326 327 326 326 326 326 325 325 325 324 324 324 323
329 329 329 328 328 328 328 329 329 329 329 329 329 330 329 329 329 329 329 328 328 328 327 327 327 326 326 326 325 326 326 326 326 326 326 325 325 325 325 324 324 324
328 329 329 328 328 328 327 328 329 329 329 329 329 329 329 329 329 329 329 328 328 328 328 327 327 326 326 326 325 325 326 326 326 326 325 325 325 325 324 324 324 324
327 328 328 328 328 328 327 328 328 328 328 328 329 329 329 329 329 329 329 329 328 328 328 327 327 327 326 326 325 325 325 326 326 326 325 325 325 325 325 324 324 324
326 327 327 328 328 327 327 327 327 328 327 328 328 328 329 329 329 329 329 329 329 328 328 327 327 327 326 326 326 325 325 325 326 326 326 325 325 325 325 325 324 324
324 325 326 327 327 327 327 327 327 327 327 327 327 327 328 328 328 328 328 329 329 328 328 328 327 327 327 326 326 326 326 325 325 325 325 325 325 325 325 325 324 324
322 324 325 326 327 327 327 327 327 327 327 327 327 327 327 328 328 328 328 328 328 328 328 328 327 327 327 327 326 326 326 325 325 325 325 325 325 324 324 324 324 324
321 322 324 326 326 327 327 327 327 327 327 326 327 327 327 327 327 327 328 328 328 328 328 328 327 327 327 327 326 326 326 326 326 325 325 325 325 324 324 324 324 324
320 322 324 325 326 326 326 326 326 326 326 326 326 326 326 327 327 327 327 327 328 327 327 327 327 327 327 327 327 326 326 326 326 325 325 325 324 324 324 324 324 324
320 322 324 325 325 326 326 326 326 326 326 326 326 326 326 326 326 326 327 327 327 327 327 327 327 327 327 327 326 326 326 326 325 325 325 325 324 324 324 324 324 324
317 320 322 323 324 325 325 326 326 326 326 326 326 326 325 325 326 326 326 327 327 327 327 327 327 327 327 326 326 326 326 326 325 325 325 325 325 324 324 324 324 323
314 316 319 320 322 323 324 325 325 325 326 325 325 325 325 325 325 325 326 326 326 326 326 327 327 326 326 326 326 326 326 325 325 325 325 325 325 324 324 324 324 323
310 312 314 316 318 320 321 322 323 324 324 325 325 326 325 325 326 325 325 325 324 324 325 325 325 326 326 325 325 325 325 325 325 325 324 324 324 324 324 324 324 323
308 308 309 311 313 315 316 317 319 320 321 322 323 324 324 325 324 324 324 323 323 323 323 324 324 325 324 325 325 325 324 324 324 324 324 324 324 324 324 324 323 323
308 308 308 308 309 309 310 310 311 312 312 314 315 316 316 317 319 321 322 322 322 322 322 323 323 324 324 324 324 324 324 324 323 323 323 323 323 323 323 323 323 323
308 309 309 309 309 308 308 308 307 307 307 307 307 308 308 309 310 312 314 315 316 317 317 319 320 321 322 323 323 323 323 323 323 323 323 322 322 322 322 322 323 322
307 308 308 308 308 308 308 307 307 307 307 307 307 307 307 306 306 306 307 307 308 308 310 311 313 314 316 317 319 320 320 321 321 321 321 321 321 321 321 321 321 322
306 306 306 306 306 306 306 306 306 306 306 307 307 306 306 305 305 305 305 305 305 305 306 306 307 308 310 312 314 316 317 317 318 318 319 319 320 319 320 320 320 321
305 305 305 305 305 304 304 304 304 304 305 305 305 305 305 305 305 305 304 304 304 304 305 305 305 306 307 308 310 313 315 316 317 317 318 318 319 319 319 319 319 320
305 304 304 304 303 303 303 303 303 303 303 303 303 303 303 304 304 304 303 304 303 304 304 304 304 305 305 306 307 309 311 313 315 316 317 317 317 318 318 318 319 319
303 303 303 302 302 302 302 302 302 302 302 302 302 302 302 303 303 303 303 302 302 302 303 303 303 304 304 304 305 305 307 310 312 313 314 315 316 316 317 317 318 318
302 302 301 301 301 301 301 301 301 301 301 300 301 301 301 301 302 302 302 301 302 301 301 302 302 302 303 303 303 303 304 306 308 310 311 312 313 314 315 315 316 316
301 301 301 301 300 300 300 300 300 300 300 300 300 300 301 301 301 301 301 301 301 301 300 301 301 301 301 302 301 301 301 303 304 306 308 309 310 311 312 313 313 314
300 300 300 300 299 299 299 300 300 300 300 299 299 300 301 301 301 301 302 301 300 300 300 300 300 300 300 300 301 300 300 301 302 304 305 306 307 308 309 310 311 312
299 299 299 299 299 299 299 299 299 300 300 299 299 299 300 300 300 300 301 301 300 300 300 300 300 300 299 299 300 300 299 299 300 302 304 304 305 306 306 307 308 309
298 298 298 298 299 299 299 299 299 299 299 299 299 299 299 299 299 299 299 300 300 300 300 299 299 300 299 299 298 299 299 298 299 301 302 302 303 304 304 304 305 306
Wind_Speed
32 32 32 31 32 32 32 30 30 29 29 29 30 31 31 31 31 31 33 34 36 37 38 38 37 38 37 37 36 36 36 35 34 34 35 36 38 39 39 39 38 37
31 31 30 30 31 32 32 31 30 29 30 30 29 29 29 28 29 30 31 33 34 36 37 37 37 37 37 37 36 36 36 36 36 35 34 34 36 38 39 40 39 38
29 29 29 30 31 31 31 30 29 29 29 29 28 28 27 27 27 28 30 32 33 35 36 36 37 37 37 38 37 37 36 36 37 38 36 34 34 35 37 38 38 39
27 28 29 29 30 29 28 26 26 27 27 27 27 26 26 26 26 26 28 30 32 34 34 35 36 36 36 37 37 36 36 36 36 37 36 36 35 34 35 36 37 38
26 26 27 28 28 27 26 25 25 25 25 26 26 25 25 25 25 25 26 28 30 32 32 33 34 34 35 35 35 35 35 35 36 36 35 36 36 35 35 35 36 37
23 23 24 25 25 25 24 25 25 24 24 25 24 25 25 24 25 25 26 27 28 30 31 32 33 33 34 35 35 35 36 36 37 37 37 37 37 37 36 36 36 37
20 20 21 21 22 23 23 24 24 24 24 23 23 24 24 24 25 25 26 27 28 29 31 32 33 34 34 35 35 36 36 37 38 38 38 38 37 37 37 37 38 38
17 18 18 19 20 21 22 23 22 22 22 22 23 24 23 24 25 26 26 27 28 30 31 33 34 35 35 35 36 37 37 37 38 38 39 38 37 37 38 37 37 38
15 16 16 17 19 20 21 21 21 21 21 21 23 23 23 24 25 26 27 27 29 30 32 33 34 35 36 36 36 37 38 39 39 39 39 39 38 38 38 36 36 37
13 14 15 16 18 19 20 20 20 20 20 21 22 22 23 24 25 26 27 28 29 31 32 33 35 35 35 35 36 37 38 39 39 40 40 40 39 39 37 36 36 37
12 13 14 15 16 17 18 18 18 18 19 20 21 22 23 24 25 26 27 28 30 31 32 33 34 34 34 34 36 37 38 38 38 38 39 39 39 39 37 36 36 37
8 10 12 13 14 15 16 16 17 18 19 20 21 22 23 24 24 25 26 28 29 30 31 33 33 33 33 34 35 36 37 38 37 37 38 38 39 38 38 37 37 37
4 6 8 9 11 12 13 15 16 17 18 19 20 21 22 23 23 24 25 26 28 29 31 33 33 34 34 35 35 36 36 37 37 37 37 37 37 37 37 37 37 37
4 4 5 6 9 10 12 13 15 16 17 17 18 19 20 21 22 24 25 26 28 30 31 32 33 34 35 36 36 36 36 36 36 36 36 36 36 36 36 37 37 38
4 4 4 5 6 8 9 11 12 13 14 15 17 18 20 21 22 23 24 26 28 29 30 31 31 33 34 34 34 33 34 34 34 34 34 34 35 35 35 36 37 37
4 4 4 4 5 6 7 8 9 11 12 13 15 17 18 20 22 23 24 26 28 29 31 32 32 33 33 33 33 33 32 32 32 32 32 33 33 34 34 35 35 36
6 6 6 5 6 6 7 8 9 11 12 14 15 16 17 18 20 22 24 25 27 29 31 32 33 34 33 34 35 35 35 35 34 34 33 33 33 33 34 34 34 35
8 8 9 9 9 9 10 10 11 12 13 15 16 17 17 18 20 21 22 23 25 28 29 31 32 32 31 32 33 34 35 36 37 37 36 36 36 36 36 36 36 37
10 10 11 11 12 12 13 13 14 15 16 17 18 18 19 20 21 22 23 23 23 26 28 30 31 30 30 31 31 32 33 34 36 37 37 37 37 36 36 36 36 36
11 12 13 14 15 15 15 15 16 17 18 19 20 21 21 23 24 24 25 24 24 26 28 29 30 29 28 29 29 31 31 32 34 36 37 38 38 37 36 36 35 35
14 14 15 16 17 17 18 18 18 19 20 20 21 21 22 24 25 25 27 27 27 27 28 31 31 28 28 28 27 28 29 30 32 34 36 37 38 37 37 37 37 36
16 16 17 18 19 20 20 21 21 21 21 22 22 23 23 24 25 26 27 28 29 28 30 33 33 29 28 28 26 25 26 28 31 33 35 37 37 36 37 39 39 38
16 16 18 19 20 21 23 23 23 23 23 23 23 24 25 26 27 28 28 29 30 30 30 34 36 31 28 28 26 24 23 26 29 31 33 35 35 35 37 38 39 39
15 15 16 18 19 20 22 23 24 24 23 22 23 24 26 27 27 29 31 30 31 32 31 34 38 34 29 27 26 23 22 24 27 29 32 33 33 35 37 38 39 40
15 15 16 17 18 19 20 21 22 23 23 22 22 23 25 26 26 28 31 32 32 32 32 33 37 37 31 28 26 23 22 23 25 28 31 31 31 34 37 37 38 39
17 17 17 17 18 19 20 20 21 21 21 22 22 23 24 26 26 26 30 33 33 33 34 33 34 35 33 29 26 24 22 22 24 27 30 30 31 33 35 35 35 36
Wind_Direction
232 233 233 232 232 233 233 232 231 230 229 228 227 228 229 230 231 230 229 229 228 228 228 228 228 228 228 227 227 227 228 229 231 234 234 232 231 233 234 235 235 235
231 232 233 233 233 234 234 234 234 233 233 233 233 234 235 235 235 233 233 232 231 230 229 228 228 228 228 227 226 226 228 229 231 233 235 234 233 233 234 235 236 236
231 231 231 232 233 234 235 235 235 235 236 235 236 237 236 236 237 236 235 235 233 232 231 229 229 229 229 230 228 227 227 229 231 233 235 236 236 235 236 237 237 238
232 231 231 233 235 235 235 235 235 236 236 236 236 237 237 237 237 238 237 235 234 234 233 231 230 230 231 231 230 229 228 229 232 234 236 238 239 239 240 239 239 239
234 234 234 235 236 236 235 233 235 236 236 236 236 236 237 236 236 236 236 235 233 233 233 233 232 232 232 232 231 230 230 231 232 234 236 238 239 240 241 241 240 239
238 237 237 236 236 236 235 235 237 236 236 237 238 237 236 236 236 236 236 235 234 233 232 233 234 233 232 232 231 230 231 232 233 233 235 237 238 239 240 241 241 241
241 239 237 236 235 235 235 237 237 236 236 237 238 237 235 235 236 237 237 237 236 235 234 234 235 235 233 231 230 231 231 232 233 234 235 236 238 238 239 240 241 242
242 240 237 235 233 233 235 237 237 236 236 236 236 237 235 235 236 237 237 237 236 237 237 236 236 236 235 232 230 231 231 232 233 234 235 236 237 238 238 238 239 241
237 236 234 231 231 232 234 235 236 237 236 235 236 236 235 236 237 237 237 237 237 237 238 239 238 236 235 233 232 232 232 233 233 234 235 235 236 238 238 238 239 240
230 230 230 231 232 233 235 236 237 238 237 237 238 238 237 237 238 237 237 236 237 238 239 239 239 238 236 235 235 236 236 236 236 236 236 237 238 239 239 239 239 240
230 228 229 231 234 235 237 239 240 240 240 240 240 240 240 240 239 238 237 237 238 239 240 241 241 240 239 239 239 239 239 240 239 239 239 240 241 241 241 240 240 240
242 238 238 238 239 240 241 243 244 245 245 245 245 246 246 245 244 242 242 243 243 244 244 244 244 244 244 244 243 242 242 242 242 243 242 242 243 243 242 242 241 242
280 263 256 254 253 251 251 251 251 251 252 252 252 253 254 253 252 251 252 251 251 251 250 249 248 247 247 246 245 244 244 244 244 244 245 245 245 245 244 244 243 243
342 317 288 271 264 261 259 257 255 255 256 256 256 256 258 259 260 261 261 259 258 257 256 255 253 251 249 247 246 246 245 246 246 246 246 246 247 247 246 246 245 244
355 341 320 298 286 280 277 273 270 269 266 264 262 261 261 262 262 263 263 262 262 261 260 260 258 255 253 250 249 249 248 248 248 248 249 249 249 250 249 247 246 245
357 347 334 320 308 301 298 295 290 286 281 276 272 268 266 265 264 263 263 263 264 264 263 261 259 257 255 253 252 252 252 252 252 251 251 251 252 252 250 248 247 246
0 354 347 342 329 318 311 304 299 294 290 287 284 281 279 276 273 270 269 268 267 267 265 263 261 259 257 255 254 252 252 253 255 255 255 254 254 254 253 252 250 249
5 357 351 348 342 335 328 319 312 306 302 299 297 296 294 289 284 281 279 277 274 272 270 269 268 266 263 260 257 256 255 254 255 257 256 255 254 254 254 254 252 251
9 359 353 349 345 341 335 329 323 317 315 313 310 308 305 298 295 292 288 285 281 278 277 276 275 273 270 265 260 257 256 256 256 256 256 255 255 254 254 253 252 251
8 360 353 350 347 344 340 335 330 326 324 322 317 314 309 304 302 299 295 292 288 286 285 283 281 279 276 270 263 258 255 256 256 256 256 257 256 256 256 256 255 253
4 359 354 351 348 345 342 339 335 332 330 327 322 317 312 308 306 302 299 297 294 292 289 287 285 285 283 278 269 260 255 255 256 256 256 257 257 257 258 258 257 256
2 358 355 352 349 345 343 340 338 334 332 330 325 320 315 311 308 305 303 301 299 296 292 290 290 290 290 287 280 269 259 253 254 256 256 256 257 256 257 258 258 257
360 357 353 350 347 344 341 338 336 333 333 332 328 324 321 317 314 311 308 305 303 301 297 295 295 294 293 293 289 281 270 260 255 255 255 256 257 257 257 258 258 256
357 354 349 345 343 340 338 336 334 333 333 333 329 324 322 320 318 315 311 308 305 303 301 299 298 297 296 295 293 288 279 270 264 261 260 259 259 259 258 258 258 257
350 347 345 342 339 338 336 334 333 332 332 332 329 324 321 319 318 314 311 310 307 304 302 300 299 300 299 296 296 292 283 275 270 266 264 263 262 262 262 260 259 258
344 343 343 341 338 336 335 333 333 332 332 331 329 326 322 319 318 315 311 311 309 307 305 301 300 302 302 300 299 295 288 280 271 266 265 267 267 267 266 266 263 260